Weather History for Pipestone, MN

Change the Weather History Date:

Sunday, April 14, 2013

  Actual Average Record
Temperature  
Mean Temperature 32 °F -  
Max Temperature 35 °F 53 °F 84 °F (2003)
Min Temperature 28 °F 33 °F 21 °F (2014)
Degree Days  
Heating Degree Days 34    
Moisture  
Dew Point 31 °F    
Average Humidity 93    
Maximum Humidity 100    
Minimum Humidity 75    
Precipitation  
Precipitation 0.15 in - - ()
Sea Level Pressure  
Sea Level Pressure 29.49 in    
Wind  
Wind Speed 21 mph (SE)    
Max Wind Speed 33 mph    
Max Gust Speed 39 mph    
Visibility 6 miles    
Events Fog , Rain , Snow    
Averages and records for this station are not official NWS values.
T = Trace of Precipitation, MM = Missing Value Source: NWS Daily Summary

Daily Weather History Graph

Daily Weather History Graph

Search for Another Location

Airport:

Trip Planner

Search our weather history database for the weather conditions in past years. The results will help you decide how hot, cold, wet, or windy it might be!

Date:

Astronomy

Apr. 14, 2013 Rise Set
Actual Time 6:43 AM CDT 8:08 PM CDT
Civil Twilight 6:13 AM CDT 8:38 PM CDT
Nautical Twilight 5:37 AM CDT 9:14 PM CDT
Astronomical Twilight 4:58 AM CDT 9:53 PM CDT
Moon 9:14 AM CDT (4/14) No Moon Set
Length of Visible Light 14h 25m
Length of Day
13h 25m
Waxing Crescent, 17% of the Moon is Illuminated
Apr 14
Waxing Crescent
Apr 18
First Quarter
Apr 25
Full
May 2
Last Quarter
May 9
New

Hourly Weather History & Observations

Time (CDT) Temp. Windchill Dew Point Humidity Pressure Visibility Wind Dir Wind Speed Gust Speed Precip Events Conditions
12:13 AM 30.2 °F 18.9 °F 28.4 °F 93% 29.76 in 7.0 mi East 16.1 mph 24.2 mph N/A   Overcast
12:33 AM 30.2 °F 18.1 °F 28.4 °F 93% 29.74 in 10.0 mi East 18.4 mph 25.3 mph N/A   Overcast
12:53 AM 30.2 °F 17.8 °F 28.4 °F 93% 29.74 in 10.0 mi East 19.6 mph 25.3 mph N/A   Overcast
1:13 AM 30.2 °F 17.8 °F 28.4 °F 93% 29.70 in 10.0 mi East 19.6 mph 27.6 mph N/A   Mostly Cloudy
1:33 AM 30.2 °F 17.4 °F 28.4 °F 93% 29.70 in 10.0 mi East 20.7 mph 29.9 mph N/A   Mostly Cloudy
1:53 AM 28.4 °F 16.6 °F 28.4 °F 100% 29.72 in 10.0 mi East 16.1 mph 24.2 mph N/A   Overcast
2:13 AM 30.2 °F 18.5 °F 28.4 °F 93% 29.71 in 10.0 mi East 17.3 mph 25.3 mph N/A   Overcast
2:33 AM 30.2 °F 18.1 °F 28.4 °F 93% 29.71 in 10.0 mi East 18.4 mph 24.2 mph N/A   Overcast
2:53 AM 30.2 °F 17.8 °F 28.4 °F 93% 29.69 in 10.0 mi ESE 19.6 mph 25.3 mph N/A   Overcast
3:13 AM 30.2 °F 17.8 °F 28.4 °F 93% 29.68 in 10.0 mi ESE 19.6 mph 26.5 mph N/A   Overcast
3:33 AM 30.2 °F 17.1 °F 28.4 °F 93% 29.66 in 10.0 mi ESE 21.9 mph 27.6 mph N/A   Overcast
3:53 AM 30.2 °F 16.8 °F 28.4 °F 93% 29.65 in 10.0 mi ESE 23.0 mph 28.8 mph N/A   Overcast
4:13 AM 30.2 °F 16.5 °F 28.4 °F 93% 29.64 in 10.0 mi ESE 24.2 mph 28.8 mph N/A   Overcast
4:33 AM 30.2 °F 16.8 °F 28.4 °F 93% 29.62 in 10.0 mi ESE 23.0 mph 28.8 mph N/A   Overcast
4:53 AM 30.2 °F 17.1 °F 28.4 °F 93% 29.62 in 10.0 mi ESE 21.9 mph 29.9 mph N/A   Overcast
5:13 AM 32.0 °F 18.6 °F 28.4 °F 87% 29.60 in 10.0 mi ESE 25.3 mph 33.4 mph N/A   Overcast
5:33 AM 30.2 °F 15.7 °F 28.4 °F 93% 29.59 in 10.0 mi ESE 27.6 mph 33.4 mph N/A   Overcast
5:53 AM 32.0 °F 18.9 °F 30.2 °F 93% 29.58 in 10.0 mi ESE 24.2 mph 39.1 mph N/A   Overcast
6:13 AM 30.2 °F 16.8 °F 28.4 °F 93% 29.56 in 10.0 mi ESE 23.0 mph 33.4 mph N/A   Overcast
6:33 AM 30.2 °F 16.2 °F 28.4 °F 93% 29.55 in 10.0 mi ESE 25.3 mph 34.5 mph N/A   Overcast
6:53 AM 30.2 °F 15.7 °F 30.2 °F 100% 29.54 in 7.0 mi ESE 27.6 mph 38.0 mph N/A   Overcast
7:13 AM 30.2 °F 16.2 °F 30.2 °F 100% 29.53 in 7.0 mi ESE 25.3 mph 34.5 mph N/A   Overcast
7:33 AM 30.2 °F 15.7 °F 30.2 °F 100% 29.52 in 5.0 mi ESE 27.6 mph 35.7 mph N/A   Overcast
7:53 AM 30.2 °F 16.2 °F 30.2 °F 100% 29.52 in 5.0 mi ESE 25.3 mph 36.8 mph N/A   Overcast
8:13 AM 30.2 °F 15.4 °F 30.2 °F 100% 29.52 in 5.0 mi ESE 28.8 mph 36.8 mph N/A   Overcast
8:33 AM 32.0 °F 17.0 °F 30.2 °F 93% 29.49 in 2.0 mi ESE 33.4 mph 36.8 mph N/A   Overcast
8:53 AM 32.0 °F 17.9 °F 30.2 °F 93% 29.48 in 1.2 mi ESE 28.8 mph 35.7 mph N/A   Overcast
9:13 AM 32.0 °F 18.6 °F 30.2 °F 93% 29.48 in 1.2 mi ESE 25.3 mph 35.7 mph N/A   Overcast
9:33 AM 32.0 °F 18.1 °F 30.2 °F 93% 29.48 in 1.5 mi ESE 27.6 mph 32.2 mph N/A   Overcast
9:53 AM 32.0 °F 17.9 °F 30.2 °F 93% 29.47 in 1.0 mi ESE 28.8 mph 34.5 mph N/A   Overcast
10:13 AM 32.0 °F 17.9 °F 30.2 °F 93% 29.46 in 0.8 mi ESE 28.8 mph 36.8 mph N/A   Overcast
10:32 AM 32.0 °F 19.5 °F 30.2 °F 93% 29.45 in 0.8 mi ESE 21.9 mph 29.9 mph N/A   Overcast
10:53 AM 32.0 °F 18.1 °F 30.2 °F 93% 29.43 in 0.2 mi ESE 27.6 mph 34.5 mph N/A Fog Fog
11:13 AM 33.8 °F 20.1 °F 32.0 °F 93% 29.40 in 0.5 mi ESE 29.9 mph 39.1 mph N/A Fog Fog
11:33 AM 33.8 °F 21.3 °F 32.0 °F 93% 29.42 in 0.2 mi ESE 24.2 mph 33.4 mph N/A Snow Light Snow
11:53 AM 33.8 °F 20.8 °F 32.0 °F 93% 29.42 in 0.2 mi ESE 26.5 mph 38.0 mph N/A Fog Fog
12:13 PM 33.8 °F 21.6 °F 33.8 °F 100% 29.40 in 0.2 mi ESE 23.0 mph 32.2 mph N/A   Overcast
12:33 PM 33.8 °F 21.3 °F 33.8 °F 100% 29.40 in 0.2 mi ESE 24.2 mph 31.1 mph 0.01 in Snow Light Snow
12:53 PM 33.8 °F 21.6 °F 33.8 °F 100% 29.39 in 0.2 mi ESE 23.0 mph 28.8 mph 0.03 in Rain Light Rain
1:13 PM 33.8 °F 22.8 °F 33.8 °F 100% 29.38 in 0.2 mi SE 18.4 mph 29.9 mph 0.02 in Fog Fog
1:33 PM 35.6 °F 22.7 °F 33.8 °F 93% 29.31 in 0.2 mi ESE 28.8 mph 36.8 mph 0.02 in Snow Light Snow
1:53 PM 35.6 °F 26.2 °F 33.8 °F 93% 29.35 in 0.2 mi SE 15.0 mph 31.1 mph 0.03 in Fog Fog
2:13 PM 35.6 °F 26.2 °F 33.8 °F 93% 29.36 in 0.5 mi SE 15.0 mph 23.0 mph 0.02 in Fog Fog
2:33 PM 35.6 °F 27.1 °F 35.6 °F 100% 29.36 in 0.5 mi SE 12.7 mph - 0.02 in Fog Fog
2:53 PM 35.6 °F 27.1 °F 35.6 °F 100% 29.36 in 0.5 mi SE 12.7 mph - 0.01 in Fog Fog
3:13 PM 35.6 °F 26.2 °F 33.8 °F 93% 29.35 in 0.2 mi ESE 15.0 mph - 0.02 in Fog Fog
3:33 PM 35.6 °F 27.5 °F 35.6 °F 100% 29.34 in 0.2 mi ESE 11.5 mph - 0.01 in   Overcast
3:53 PM 35.6 °F 31.7 °F 35.6 °F 100% 29.34 in 0.5 mi SE 4.6 mph - 0.02 in Rain Light Rain
4:13 PM 35.6 °F 29.9 °F 35.6 °F 100% 29.33 in 0.5 mi ESE 6.9 mph - 0.01 in   Drizzle
4:33 PM 35.6 °F 28.6 °F 35.6 °F 100% 29.34 in 0.8 mi ESE 9.2 mph - 0.01 in   Drizzle
4:53 PM 35.6 °F 29.2 °F 35.6 °F 100% 29.35 in 0.8 mi SE 8.1 mph - 0.02 in Rain Rain
5:13 PM 35.6 °F 32.8 °F 35.6 °F 100% 29.36 in 1.2 mi South 3.5 mph - N/A   Overcast
5:33 PM 35.6 °F 28.6 °F 35.6 °F 100% 29.37 in 0.5 mi SSW 9.2 mph - 0.01 in Fog Fog
5:53 PM 35.6 °F 25.5 °F 35.6 °F 100% 29.39 in 0.2 mi WSW 17.3 mph - 0.01 in Snow Light Snow
6:13 PM 35.6 °F 26.2 °F 35.6 °F 100% 29.39 in 0.5 mi WSW 15.0 mph - 0.01 in Fog Fog
6:33 PM 35.6 °F 25.2 °F 35.6 °F 100% 29.41 in 7.0 mi WSW 18.4 mph 24.2 mph 0.01 in   Overcast
6:53 PM 35.6 °F 25.2 °F 35.6 °F 100% 29.41 in 10.0 mi WSW 18.4 mph - N/A   Overcast
7:13 PM 35.6 °F 23.7 °F 33.8 °F 93% 29.42 in 10.0 mi West 24.2 mph 29.9 mph N/A   Overcast
7:33 PM 35.6 °F 24.5 °F 32.0 °F 87% 29.42 in 10.0 mi West 20.7 mph 28.8 mph 0.01 in   Overcast
7:53 PM 35.6 °F 24.5 °F 30.2 °F 81% 29.43 in 10.0 mi West 20.7 mph 33.4 mph N/A   Overcast
8:13 PM 35.6 °F 24.8 °F 30.2 °F 81% 29.44 in 10.0 mi WSW 19.6 mph - N/A   Overcast
8:33 PM 35.6 °F 24.5 °F 30.2 °F 81% 29.44 in 10.0 mi WSW 20.7 mph - N/A   Overcast
8:53 PM 35.6 °F 23.7 °F 30.2 °F 81% 29.45 in 10.0 mi WSW 24.2 mph 29.9 mph N/A   Overcast
9:13 PM 33.8 °F 21.6 °F 30.2 °F 87% 29.46 in 10.0 mi West 23.0 mph 27.6 mph N/A   Overcast
9:33 PM 33.8 °F 21.9 °F 28.4 °F 81% 29.46 in 10.0 mi West 21.9 mph 29.9 mph N/A   Overcast
9:53 PM 33.8 °F 22.2 °F 28.4 °F 81% 29.47 in 10.0 mi West 20.7 mph 28.8 mph N/A   Scattered Clouds
10:13 PM 33.8 °F 21.6 °F 28.4 °F 81% 29.47 in 10.0 mi WSW 23.0 mph 27.6 mph N/A   Clear
10:33 PM 33.8 °F 21.3 °F 26.6 °F 75% 29.48 in 10.0 mi West 24.2 mph 28.8 mph N/A   Clear
10:53 PM 32.0 °F 18.9 °F 26.6 °F 80% 29.48 in 10.0 mi West 24.2 mph 27.6 mph N/A   Clear
11:13 PM 32.0 °F 20.8 °F 26.6 °F 80% 29.47 in 10.0 mi West 17.3 mph 26.5 mph N/A   Mostly Cloudy
11:33 PM 32.0 °F 17.9 °F 26.6 °F 80% 29.48 in 10.0 mi West 28.8 mph 35.7 mph N/A   Scattered Clouds
11:53 PM 30.2 °F 15.2 °F 24.8 °F 80% 29.48 in 10.0 mi West 29.9 mph 33.4 mph N/A   Clear